Skip Page Navigation
NASA JPL Caltech
NASA Logo - Jet Propulsion Laboratory + View the NASA Portal
+ Center for Near-Earth Object Studies
JPL Home Earth Solar System Stars & Galaxies Technology
JPL Solar System Dynamics
BODIES ORBITS EPHEMERIDES TOOLS PHYSICAL DATA DISCOVERY FAQ SITE MAP
JPL Small-Body Database Browser
Search: [ help ]  
342967 (2009 BT10)
Classification: Main-belt Asteroid          SPK-ID: 2342967
Ephemeris | Orbit Diagram | Orbital Elements | Mission Design | Physical Parameters | Discovery Circumstances | Close-Approach Data ]

[ hide orbit diagram ]

For accurate long-term ephemerides, please instead use our Horizons system.This orbit viewer was implemented using two-body methods, and hence should not be used for determining accurate long-term trajectories (over several years or decades) or planetary encounter circumstances.


[ revert to old Java-based viewer ]

Orbital Elements at Epoch 2459000.5 (2020-May-31.0) TDB
Reference: JPL 12 (heliocentric ecliptic J2000)
 Element Value Uncertainty (1-sigma)   Units 
e .2236202830428546 5.7718e-08  
a 2.934070785585055 2.955e-08 au
q 2.277953046044754 1.6534e-07 au
i 5.5412592632734 7.643e-06 deg
node 263.184166686375 0.00011112 deg
peri 167.7031758986042 0.00011559 deg
M 130.4151052891372 3.2153e-05 deg
tp 2458335.487661529139
(2018-Aug-04.98766153)
0.00016007 TDB
period 1835.710988529569
5.03
2.7732e-05
7.593e-08
d
yr
n .1961093016544861 2.9626e-09 deg/d
Q 3.590188525125356 3.6158e-08 au
  Orbit Determination Parameters
   # obs. used (total)      157  
   data-arc span      6436 days (17.62 yr)  
   first obs. used      2002-09-13  
   last obs. used      2020-04-27  
   planetary ephem.      DE431  
   SB-pert. ephem.      SB431-N16  
   condition code      0  
   norm. resid. RMS      .60728  
   source      ORB  
   producer      Otto Matic  
   solution date      2020-May-21 22:17:53  

Additional Information
 Earth MOID = 1.29292 au 
 Jupiter MOID = 1.71315 au 
 T_jup = 3.230 
[ show covariance matrix ]

Ephemeris | Orbit Diagram | Orbital Elements | Mission Design | Physical Parameters | Discovery Circumstances | Close-Approach Data ]

Physical Parameter Table
Parameter Symbol Value Units Sigma Reference Notes
absolute magnitude H 16.5   n/a MPO427760  

342967 (2009 BT10)          Discovered 2009-Jan-25 by Lowe, A. at Mayhill
Reference: 20121029/Numbers.arcLast Updated: 2012-11-08

[ hide close-approach data ]
Close-Approach Data   ...sorted by Date/Time (TDB)
Date/Time (TDB) Time Uncertainty
(days_HH:MM)
Body Nominal Distance (au) Minimum Distance (au) Maximum Distance (au) V-relative (km/s) V-infinity (km/s) JD (TDB) Time Uncertainty (minutes) Semi-major axis (km) Semi-minor axis (km) range-LOV angle (deg) N-sigma BP Orbit Ref. Reference Modified
1900-Mar-02 13:05 00:05 Jupiter 1.81156274580738 1.81156064468357 1.8115648469491 1.87233366459551 1.60327921967723 2415081.045338608 5.22890626060456 359.931507068327 59.4390103474496 71.9410182436046 1424395.56293105 T 12 CATAB v2.0f-lin.ifort 2020-May-21 22:17:55 2020-May-21 22:18
1961-Aug-10 13:50 00:03 Jupiter 1.90419713559073 1.90419481862075 1.90419945256255 2.46173987074161 2.27387901364821 2437522.076346901 2.81577016822825 224.654352551124 33.24732196292 75.7205747238304 651536.989534874 T 12 CATAB v2.0f-lin.ifort 2020-May-21 22:17:55 2020-May-21 22:18
1996-Jun-30 03:54 00:01 Jupiter 1.75724378300839 1.75724233363008 1.7572452323861 2.07574440057395 1.82884649981234 2450264.662844723 1.20325772962589 212.561863351432 54.0995907689255 73.2165025405514 837533.084957074 T 12 CATAB v2.0f-lin.ifort 2020-May-21 22:17:55 2020-May-21 22:18
2031-Jun-07 00:41 < 00:01 Jupiter 1.71167277945344 1.71167199890451 1.71167356000178 1.9493751687147 1.67641346286613 2463024.528664391 0.847009099906282 175.991518649284 71.4900235375847 75.7387956579024 1124993.44900602 T 12 CATAB v2.0f-lin.ifort 2020-May-21 22:17:55 2020-May-21 22:18
2066-May-09 21:35 00:02 Jupiter 1.80567333246535 1.80567207816746 1.80567458676714 1.94258610254039 1.68388290515531 2475780.399476956 2.39341301020371 210.140518803778 56.2623139710672 76.8609403411416 1375432.6602908 T 12 CATAB v2.0f-lin.ifort 2020-May-21 22:17:55 2020-May-21 22:18
2101-Mar-29 06:15 00:04 Jupiter 1.99710811864338 1.99710549042143 1.99711074686736 2.13818759969438 1.92966245180205 2488521.760696653 4.02862671604517 203.407704411739 35.5891415702699 67.8883462035201 1061722.30889917 T 12 CATAB v2.0f-lin.ifort 2020-May-21 22:17:55 2020-May-21 22:18
2127-Oct-19 23:31 00:05 Jupiter 1.90123927744642 1.90123653794744 1.90124201695503 2.38320083541619 2.18829265492868 2498222.479679806 5.23967875357012 335.479255583116 29.7137147703136 78.9040798589559 640668.266471415 T 12 CATAB v2.0f-lin.ifort 2020-May-21 22:17:55 2020-May-21 22:18
2162-Sep-08 03:22 00:06 Jupiter 1.75079139983065 1.75078940083401 1.7507933988265 2.01616641442985 1.75992580787941 2510964.640004127 6.38302349429616 268.292848461289 67.5028412161899 71.5312341009567 765868.732616405 T 12 CATAB v2.0f-lin.ifort 2020-May-21 22:17:55 2020-May-21 22:18
2197-Aug-13 23:49 00:08 Jupiter 1.70420862709142 1.70420752385096 1.70420973036056 1.94603665648949 1.6712338225281 2523723.492503883 7.72463090891381 541.642666261231 86.5572652598303 85.1771207260333 954462.804994142 T 12 CATAB v2.0f-lin.ifort 2020-May-21 22:17:55 2020-May-21 22:18
Ephemeris | Orbit Diagram | Orbital Elements | Mission Design | Physical Parameters | Discovery Circumstances | Close-Approach Data ]
ABOUT SSD CREDITS/AWARDS PRIVACY/COPYRIGHT GLOSSARY LINKS
FirstGov 2020-Oct-26 00:04 UT
(server date/time)  
NASA Home Page
Site Manager:   Ryan S. Park
Webmaster  Alan B. Chamberlin